Flag for Japan Weather past 2 weeks in Fukushima, Japan

Now
65 °F

Mild.


Feels Like: 65 °F
Forecast: 43 / 74 °F
Wind: 3 mph from Northwest

Location: Wakamatsu

Current Time: Oct 25, 2014 at 3:40:41 PM

Latest Report: Oct 25, 2014 at 2:00 PM


Visibility: 13 mi

Pressure: 30.16 "Hg

Humidity: 58%

Dew point: 50 °F

Location of FukushimaLocation

Historic Weather in Fukushima — Graph

°F

Fukushima temperature yesterday

Maximum temperature yesterday: 66 °F (at 3:00 PM)
Minimum temperature yesterday: 42 °F (at 6:00 AM)
Average temperature yesterday: 53 °F

Past Weeks' High & Low Weather Summary

 TemperatureHumidityPressure
High74 °F (Oct 10, 2:00 PM)100% (Oct 25, 4:00 AM)30.44 "Hg (Oct 25, 4:00 AM)
Low40 °F (Oct 19, 6:00 AM)37% (Oct 18, 1:00 PM)29.12 "Hg (Oct 14, 3:00 AM)
Average55 °F81%30.10 "Hg
* Reported Oct 10 2:00 PM — Oct 25 2:00 PM, Fukushima, Weather by CustomWeather, © 2014

Note: Actual official high and low records may vary slightly from our data, if they occured in-between our weather recording intervals... More about our weather records

Advertising

Fukushima weather history for previous 24 hours

 ConditionsComfort  
Time TempWeatherWind HumidityBarometerVisibility
2:00 PM
Oct 25
65 °FMild.3 mph58%30.16 "Hg12 mi
1:00 PM61 °FCool.2 mph68%30.19 "Hg12 mi
12:00 PM56 °FCool.3 mph77%30.23 "Hg7 mi
11:00 AM55 °FCool.3 mph82%30.26 "Hg11 mi
10:00 AM51 °FCool.3 mph93%30.29 "Hg7 mi
9:00 AM49 °FCool.2 mph95%30.29 "Hg9 mi
8:00 AM48 °FCool.2 mph99%30.30 "Hg7 mi
7:00 AM47 °FFog.2 mph100%30.29 "Hg3 mi
6:00 AM46 °FCool.2 mph100%30.27 "Hg1 mi
5:00 AM46 °FDuststorm.1 mph100%30.26 "Hg0 mi
4:00 AM45 °FDuststorm.1 mph100%30.25 "Hg0 mi
3:00 AM45 °FDuststorm.2 mph98%30.25 "Hg0 mi
2:00 AM45 °FLight rain. Overcast.1 mph98%30.25 "Hg0 mi
1:00 AM46 °FCool.1 mph98%30.24 "Hg2 mi
12:00 AM47 °FDuststorm.1 mph98%30.24 "Hg0 mi
11:00 PM
Oct 24
47 °FFog.1 mph97%30.24 "Hg4 mi
10:00 PM49 °FCool.1 mph96%30.23 "Hg7 mi
9:00 PM50 °FCool.2 mph95%30.22 "Hg11 mi
8:00 PM51 °FCool.1 mph93%30.21 "Hg12 mi
7:00 PM53 °FCool.3 mph90%30.19 "Hg12 mi
6:00 PM56 °FCool.2 mph85%30.17 "Hg12 mi
5:00 PM60 °FCool.3 mph72%30.14 "Hg12 mi
4:00 PM65 °FMild.3 mph55%30.13 "Hg12 mi
3:00 PM66 °FMild.6 mph51%30.11 "Hg12 mi
Weather by CustomWeather, © 2014

See weather overviewHow to use our weather pages